Simultaneous Nadir Overpasses (SNOs) Predictions

Prediction of SNOs between METOP-B and TERRA Satellite Orbit:

Table of predicted SNOs for the next 14.0 days since TLE Epoch: 11/18/2013
Index Date (METOP-B) Time (METOP-B) Lat,Lon (METOP-B) SZA (METOP-B ) Date (TERRA) Time (TERRA) Lat,Lon (TERRA) SZA (TERRA ) Distance(km) Time Diff (sec)
1 11/18/2013 14:42:22 -81.28,-173.89 76.37 11/18/2013 14:42:43 -81.27,-173.92 76.37 0.84 21
2 11/18/2013 15:33:02 81.28, -6.26 103.68 11/18/2013 15:32:09 81.28, -6.17 103.66 1.63 53
3 11/21/2013 10:16:46 -81.28,-107.16 75.71 11/21/2013 10:16:55 -81.28,-107.29 75.72 2.30 9
4 11/21/2013 11:07:26 81.29, 60.41 104.33 11/21/2013 11:06:21 81.29, 60.43 104.30 0.39 65
5 11/24/2013 05:00:32 81.27, 151.30 104.78 11/24/2013 05:01:41 81.28, 151.49 104.84 3.31 69
6 11
